User: anonymous   Login
Location: Norwich
(52.6280°N, 1.3030°E)
Time: 21:17:06
(UTC+00:00)
Language:

ATLAS 5 CENTAUR R/B - Orbit

View from above orbital plane
View from above orbital plane
View from above satellite
View from above satellite

Ground track
Ground track

The orbit data is extracted from the following two-line orbital elements,

1 32379U 07060B   16037.89683768 0.00019500  00000-0  14637-2 0    00
2 32379  60.8444  88.7848 5235367 250.0054  47.9695  5.28751051    06
Epoch (UTC): 06 February 2016 21:31:26
Eccentricity: 0.5235367
inclination: 60.8444°
perigee height: 253 km
apogee height: 14826 km
right ascension of ascending node: 88.7848°
argument of perigee: 250.0054°
revolutions per day: 5.28751051
mean anomaly at epoch: 47.9695°
orbit number at epoch: 0

The dashed part of the orbit path shows where the satellite is in the earth's shadow,  

DLR